Wind_Speed
17 16 14 12 12 13 13 12 13 14 15 15 15 16 16 17 17 18 19 19 20 22 23 24 25 27 28 30 30 31 32 34 35 35 35 35 34 34 34 34 33 32 31 31 30 29 28 26 24 22 21 20 19 19 18 18 18 18 18 18 19 18 18 18 18 18 18 18 18
16 16 15 13 12 13 13 13 14 15 15 15 15 15 16 17 17 18 19 21 22 22 23 25 26 27 28 29 30 31 32 34 35 35 35 35 34 34 34 34 34 33 32 31 29 27 25 24 23 22 20 19 18 18 17 18 17 18 18 18 18 17 16 17 17 17 17 17 17
16 16 15 13 13 14 14 14 15 16 16 16 15 15 16 17 17 18 20 21 22 23 24 25 26 27 28 29 30 32 33 33 34 34 34 34 34 35 35 35 35 34 33 31 28 26 24 23 22 21 19 18 18 18 18 18 18 17 17 17 17 16 15 16 16 16 16 16 16
16 16 15 14 14 15 15 15 16 16 16 16 15 16 16 17 18 19 20 22 23 24 24 25 26 26 27 29 31 33 34 33 33 33 33 34 34 35 36 36 36 35 34 31 28 25 23 22 21 19 18 18 18 18 18 17 17 17 16 16 15 15 16 16 16 16 16 16 16
16 15 14 13 14 15 15 15 16 16 16 16 16 16 17 18 19 20 21 23 23 24 25 25 25 25 27 29 32 33 34 33 32 32 32 33 34 35 36 36 37 36 34 31 28 24 22 21 19 18 17 16 16 16 16 16 16 16 16 16 15 15 16 16 16 16 16 16 16
16 15 14 14 15 15 15 16 16 16 16 16 17 18 19 20 20 21 22 23 24 25 26 25 24 25 28 30 32 33 33 32 32 32 32 33 34 35 35 36 37 36 34 31 28 24 21 19 17 15 15 15 15 15 15 15 15 15 16 16 16 16 16 16 16 16 17 17 17
16 15 15 15 15 16 16 16 16 16 16 17 18 19 21 21 22 23 24 23 24 25 25 25 25 27 29 31 31 31 31 31 32 32 32 33 34 34 35 36 36 36 34 31 28 25 21 17 15 14 13 13 13 13 14 14 14 15 15 16 16 16 16 17 17 17 17 18 19
16 15 15 15 16 16 16 17 17 17 17 18 19 21 22 22 23 24 24 23 23 24 25 26 27 28 29 30 30 30 30 31 31 32 32 33 33 34 35 35 36 34 32 31 28 25 22 18 15 13 12 12 12 13 13 14 14 15 16 17 17 17 17 17 17 17 18 19 19
16 15 15 16 17 17 17 17 18 18 18 19 20 22 23 22 23 23 23 23 23 25 26 26 27 29 29 29 29 29 29 30 30 31 32 32 33 34 34 35 35 33 31 30 28 26 24 21 17 14 13 12 12 13 13 14 15 16 16 17 17 17 17 17 17 18 18 18 19
16 16 15 16 17 17 17 18 18 19 19 20 21 23 23 23 23 23 23 22 23 25 26 27 28 29 29 28 28 28 29 29 30 30 31 32 32 33 34 34 34 32 29 29 28 26 25 23 21 18 15 14 13 13 13 14 14 15 15 15 16 16 17 17 17 17 17 17 18
16 15 15 16 17 18 18 18 19 19 20 21 22 23 24 24 24 24 23 23 24 25 27 27 28 28 27 27 27 28 29 29 29 30 30 31 32 32 33 34 34 30 28 29 27 26 25 25 24 22 20 17 16 14 13 13 13 13 14 14 15 16 16 17 16 16 16 16 16
16 15 15 17 18 18 18 19 20 20 20 21 23 23 24 24 24 23 23 23 24 25 27 28 27 26 25 25 27 28 28 29 29 29 29 31 32 32 33 33 33 30 27 28 27 25 24 25 25 25 23 22 20 18 17 15 14 14 14 15 15 15 16 16 16 16 15 15 16
15 15 16 17 18 18 19 20 20 20 21 22 23 23 23 23 23 23 23 24 24 25 26 27 27 25 24 25 26 28 29 29 29 29 29 30 31 32 32 32 33 30 26 27 26 24 23 24 25 25 24 23 22 21 20 19 17 17 17 17 17 16 16 16 16 16 16 15 15
15 15 16 18 19 19 19 20 20 20 21 22 23 23 23 23 23 22 23 24 24 25 26 27 27 26 24 25 26 27 28 29 29 29 29 30 31 32 32 31 32 29 26 26 25 24 23 22 23 23 23 23 22 22 21 20 19 19 19 18 18 17 17 17 17 17 17 17 16
15 15 16 18 19 19 20 21 20 20 21 22 23 23 23 23 22 22 23 24 25 25 26 26 27 26 25 25 26 27 28 29 29 29 29 30 31 31 31 31 31 28 26 26 25 24 22 21 21 21 22 22 22 21 21 20 20 19 19 19 18 18 18 18 18 18 18 18 18
16 16 17 18 19 20 20 21 20 21 22 23 23 24 23 22 22 22 22 23 24 25 25 27 27 27 27 26 26 27 28 29 29 29 30 30 31 31 31 31 30 27 25 25 25 24 22 21 20 21 21 22 22 22 21 21 20 20 20 20 19 19 19 19 19 20 20 19 19
16 17 17 18 19 20 21 21 21 22 22 23 24 23 23 22 22 22 22 23 24 25 26 27 27 27 27 27 27 27 27 28 28 29 29 30 31 31 30 30 29 26 23 23 25 25 23 21 21 21 22 22 22 22 22 22 21 21 21 20 20 20 20 20 20 20 20 20 20
17 17 18 19 19 20 21 21 22 23 23 24 24 23 22 21 21 22 22 23 24 25 26 27 27 27 27 27 27 27 27 28 28 28 28 29 30 30 29 29 28 25 22 20 24 25 24 23 22 22 22 23 23 23 22 22 22 21 21 21 21 21 21 21 21 21 21 21 21
17 18 18 19 19 20 21 22 22 23 24 24 23 23 22 21 21 21 22 23 24 25 26 26 27 27 27 27 27 27 27 27 28 28 28 28 29 29 29 28 27 25 21 18 21 25 26 25 24 24 24 24 24 23 23 23 22 22 21 21 21 21 21 21 21 21 21 22 21
18 18 18 19 19 20 21 21 22 23 23 23 23 22 21 20 20 21 22 23 24 25 25 26 26 27 27 27 27 28 28 27 27 28 28 28 28 28 28 28 27 26 21 16 18 23 27 27 27 26 26 25 25 25 24 23 23 22 22 22 21 21 21 21 21 21 21 21 21
18 18 18 18 19 19 20 21 22 22 23 23 23 22 21 19 19 20 21 22 23 24 25 25 26 26 27 27 27 28 28 27 27 28 28 28 28 28 28 28 28 27 22 15 15 20 26 27 28 28 28 27 27 26 25 23 23 23 23 22 22 22 21 21 21 21 20 20 20
17 18 18 18 18 19 20 21 21 22 22 22 22 21 20 19 19 19 20 21 22 23 24 25 25 25 26 26 27 27 28 28 28 28 28 28 28 28 28 28 29 28 23 15 11 16 23 26 28 29 29 29 29 28 26 25 24 24 23 23 23 23 22 22 21 21 20 20 20
17 17 18 18 18 19 19 20 21 22 22 22 22 21 20 19 18 18 19 21 22 23 23 24 24 25 25 25 26 27 28 29 29 29 29 28 28 28 28 28 30 30 26 17 9 12 20 24 26 28 28 29 29 29 28 27 26 25 25 24 24 24 23 23 22 22 21 21 20
16 17 17 18 18 19 19 20 21 22 22 22 22 21 20 19 18 18 19 20 21 22 23 23 24 24 24 24 25 27 28 29 30 31 30 30 30 29 29 28 29 30 27 19 10 11 17 20 24 26 27 28 28 28 29 29 28 27 26 26 25 24 24 24 23 22 22 22 22
16 17 17 18 18 19 20 20 21 22 22 22 22 21 20 19 18 18 18 19 20 21 22 22 23 23 24 24 25 26 27 29 30 31 31 32 31 30 29 27 28 30 28 21 12 11 15 17 20 23 26 26 27 28 28 29 29 28 27 26 25 25 25 24 24 24 23 22 22
16 16 17 18 19 19 20 21 22 22 23 22 22 21 20 19 18 17 18 18 19 20 21 22 22 23 23 24 24 26 27 28 29 30 31 32 32 32 30 28 28 29 29 24 17 13 14 15 17 20 24 26 27 27 28 28 29 28 27 26 25 25 25 25 24 24 24 23 22
16 17 18 18 19 20 20 21 22 22 23 23 22 21 20 19 18 17 17 17 18 19 20 21 22 22 22 23 24 25 26 27 28 29 30 31 32 32 31 29 30 30 30 28 23 16 13 14 15 18 21 25 26 27 27 27 28 28 27 26 25 25 25 24 24 24 24 23 22
16 17 18 19 19 20 20 21 22 22 23 23 22 21 20 19 18 17 16 17 17 19 20 21 21 21 22 23 23 24 25 26 27 28 29 30 30 31 31 31 31 31 31 29 28 22 16 13 14 16 19 23 26 27 27 27 27 27 26 26 25 24 24 24 23 23 23 23 23
16 17 18 19 19 20 21 21 22 22 23 23 22 21 20 19 18 17 16 16 17 18 19 20 20 21 21 22 23 23 24 24 26 27 28 28 29 30 30 31 31 31 31 30 30 28 22 13 13 14 17 21 24 26 26 27 26 26 25 25 24 24 24 24 23 23 22 22 22
16 17 18 19 19 20 21 21 22 22 23 23 22 21 20 19 18 17 17 17 17 18 18 19 20 20 21 21 22 22 23 23 24 26 27 27 28 29 29 30 30 31 30 30 30 30 26 16 13 13 16 20 23 25 26 26 26 26 25 25 26 26 25 23 24 23 22 22 23
15 16 17 18 19 20 21 21 22 22 23 23 22 21 20 19 18 17 17 17 17 17 18 18 19 19 19 20 20 21 22 23 24 25 26 27 27 28 28 29 29 30 30 29 29 30 28 21 14 13 14 18 22 24 25 25 26 26 26 26 27 27 26 25 25 24 24 23 23
15 16 17 18 19 20 21 21 22 22 22 23 22 22 21 20 19 17 17 16 17 17 18 18 19 19 19 19 19 20 21 22 23 24 25 26 27 28 28 28 29 29 29 29 29 30 29 25 17 13 13 17 21 23 24 25 25 25 26 27 28 29 28 27 25 24 24 23 23
15 16 17 18 19 20 21 21 22 22 23 23 23 22 21 20 19 18 17 16 17 17 18 19 19 20 20 20 20 20 20 21 22 23 24 25 27 27 28 28 29 29 29 29 29 29 30 28 19 13 12 16 20 22 24 24 24 25 26 27 29 30 30 28 26 25 24 23 24
14 15 17 18 19 20 21 21 22 22 23 23 23 23 22 21 20 19 18 17 17 17 17 18 18 19 19 19 19 19 19 20 21 22 24 25 26 27 28 28 29 29 29 29 29 30 30 30 21 14 12 15 18 21 23 24 24 25 26 27 28 30 31 30 28 26 24 23 23
14 15 16 17 18 20 21 21 22 23 23 23 23 23 23 22 21 20 19 18 18 17 17 18 18 18 19 19 18 18 19 19 20 21 23 24 25 27 27 28 28 29 29 30 30 30 30 30 24 16 12 15 17 20 22 23 24 25 26 27 28 29 31 31 30 27 25 24 23
14 15 16 17 18 19 20 21 22 23 23 23 24 24 23 23 22 21 20 19 19 18 18 18 18 19 19 19 19 18 19 19 20 21 22 23 25 26 27 27 28 29 29 30 30 30 30 30 28 22 15 13 16 18 21 23 23 25 26 26 27 28 30 30 30 28 26 24 23
13 15 16 17 18 19 20 21 22 23 23 24 24 24 24 24 23 22 21 20 20 20 19 19 19 20 20 20 20 19 19 19 21 22 22 23 24 25 25 26 27 28 28 29 30 30 30 31 30 26 19 13 15 17 19 22 23 24 25 25 25 26 28 29 28 27 26 25 22
13 14 15 16 18 19 19 20 21 22 23 23 23 24 23 24 23 23 22 21 21 21 21 20 20 20 21 21 21 20 19 19 21 22 23 24 24 24 24 25 26 26 27 28 29 30 31 31 31 28 21 13 14 15 18 20 23 24 24 23 23 24 26 27 26 25 25 25 22
12 13 15 16 17 18 19 20 21 21 22 23 23 23 23 23 23 23 22 21 21 20 21 21 20 21 21 21 21 21 21 21 21 22 24 24 24 24 23 23 24 25 26 27 29 30 31 31 32 30 24 14 12 14 16 20 23 24 23 22 21 22 23 25 25 24 24 25 22
12 13 14 15 16 17 18 19 20 20 21 22 22 23 23 23 23 22 22 21 20 20 20 20 20 21 21 21 21 22 22 22 23 23 24 25 25 24 23 23 24 25 25 26 28 29 30 31 31 31 27 17 13 13 16 20 22 23 22 21 20 20 21 23 23 22 22 23 22
11 12 13 14 15 17 18 19 19 20 20 21 21 22 22 22 22 21 21 21 20 20 20 20 20 20 21 21 21 22 23 24 24 25 25 26 26 25 24 24 24 25 26 26 27 28 29 29 29 30 27 18 15 16 17 19 21 21 20 20 19 19 19 21 22 22 22 22 21
Wind_Direction
12 8 3 357 354 352 349 346 344 343 341 338 336 335 334 332 330 329 327 326 324 324 323 323 322 321 321 323 324 324 325 325 325 324 323 321 320 319 317 316 314 312 309 306 303 301 298 296 293 291 290 288 285 284 284 285 286 287 287 287 288 289 288 287 286 285 284 282 281
10 7 3 357 353 351 349 345 343 341 340 338 335 333 332 331 329 327 327 326 325 323 321 322 322 322 323 323 325 326 326 326 325 324 324 324 323 323 322 320 319 317 314 311 307 303 300 298 295 292 289 287 285 284 284 285 285 284 284 284 285 285 286 286 285 285 284 283 282
7 4 0 356 353 351 349 345 342 340 339 337 335 332 330 330 328 327 326 324 324 324 323 323 323 323 324 325 327 328 328 326 327 326 326 327 327 327 327 326 325 324 322 318 314 309 304 300 297 293 288 285 285 285 286 285 284 283 282 284 286 286 286 287 286 285 284 283 283
6 2 358 353 351 350 347 344 341 340 338 337 335 334 331 329 327 326 324 323 325 325 324 323 323 324 326 328 329 329 330 330 330 330 330 330 330 331 332 332 331 329 328 326 322 317 311 304 299 293 288 285 284 283 284 286 285 284 283 285 287 288 287 286 285 285 285 283 284
3 1 357 351 350 348 346 343 341 339 338 336 335 334 333 332 330 328 327 327 326 325 324 323 323 325 327 329 330 331 332 333 333 333 333 333 333 335 336 336 335 335 334 333 330 326 319 310 302 296 290 286 285 285 285 285 285 285 286 288 288 288 288 287 287 287 286 285 285
0 358 355 351 348 347 346 344 342 340 338 335 335 334 333 332 330 329 328 328 328 328 327 327 326 328 330 332 333 335 335 334 335 335 335 335 337 338 339 339 340 341 341 342 341 338 331 320 310 301 294 290 289 288 288 287 286 286 287 290 290 290 289 289 289 288 288 287 287
358 355 352 349 348 347 346 345 343 341 339 337 335 334 334 332 331 330 330 328 330 331 331 330 330 331 333 336 336 336 336 336 337 337 338 338 339 340 341 343 344 345 347 351 351 349 344 334 323 312 305 299 295 293 292 290 289 290 290 291 292 292 292 291 291 290 290 290 290
354 353 351 349 349 348 347 346 344 342 340 338 337 336 335 334 332 332 332 332 332 331 332 331 331 333 336 338 338 337 337 337 338 339 340 339 339 340 342 344 346 348 352 356 359 359 356 351 342 329 317 308 302 298 296 294 293 293 293 294 295 295 295 294 294 294 293 293 294
352 351 350 350 350 350 348 347 345 343 341 339 338 337 336 335 334 333 334 333 333 333 333 332 333 336 339 340 339 338 338 339 339 340 342 343 342 343 345 348 349 351 355 0 3 5 5 3 358 349 338 327 316 309 304 302 300 299 298 298 299 300 300 301 300 299 299 300 300
351 350 349 349 350 351 349 346 345 344 342 340 339 339 338 337 337 336 335 333 333 334 335 335 337 339 340 341 341 340 340 340 340 341 342 344 345 346 347 349 349 352 357 3 6 8 11 11 10 5 358 347 335 326 321 318 313 309 307 307 307 308 310 311 310 309 309 308 308
350 349 348 348 350 351 349 346 345 344 343 342 341 340 340 339 339 338 336 335 335 337 338 339 339 340 341 342 342 342 341 341 340 341 342 342 345 348 349 350 351 353 358 5 8 11 15 17 18 18 16 13 7 359 351 344 336 329 326 325 324 323 323 325 325 323 321 320 319
349 347 347 349 351 350 348 347 345 344 344 343 342 341 341 340 340 339 338 338 338 339 341 342 341 341 342 342 343 343 343 342 343 343 344 344 346 349 351 353 353 355 359 6 9 12 17 21 24 26 27 27 26 23 17 11 5 359 354 351 348 344 341 340 339 337 336 334 333
348 346 347 350 351 350 349 348 346 345 344 343 343 342 341 340 340 340 340 340 340 341 343 343 342 342 342 343 344 344 344 345 345 345 346 347 348 350 352 354 355 357 1 6 9 12 16 20 25 28 30 32 33 32 31 28 24 19 15 11 7 3 359 356 355 354 353 350 346
348 346 347 350 351 350 349 348 347 345 344 344 344 343 342 341 341 342 342 342 343 344 343 342 342 343 344 344 345 346 347 347 347 347 348 349 351 352 352 353 356 359 2 6 10 13 16 20 24 27 30 32 34 35 36 35 32 29 25 21 17 14 11 8 7 6 5 2 359
348 348 348 351 351 351 350 349 347 345 344 344 344 345 344 343 343 343 344 345 346 345 343 343 343 344 345 346 347 348 349 351 351 350 350 351 352 353 353 354 356 358 2 6 10 15 17 19 21 24 27 30 31 33 34 34 33 30 28 24 21 18 15 13 11 10 8 6 3
349 349 350 351 352 352 351 349 347 346 345 345 346 346 346 345 345 345 346 347 347 346 344 345 345 346 348 350 350 351 351 353 354 353 352 351 352 353 354 355 355 357 1 6 12 16 19 21 22 23 25 27 28 29 30 30 29 28 26 24 21 19 16 13 12 10 9 7 4
350 350 351 352 352 352 351 350 348 346 346 346 347 348 347 347 348 348 349 349 349 348 347 347 347 348 350 352 352 352 353 354 355 354 353 352 352 352 353 354 355 357 360 6 14 19 23 25 26 26 26 27 27 27 27 27 26 25 23 21 20 18 16 14 12 10 9 8 7
350 351 351 352 352 352 351 350 348 347 347 347 348 348 349 350 351 351 352 353 352 350 348 348 349 350 351 352 353 353 354 354 355 355 355 354 353 353 353 354 355 356 359 6 16 23 27 29 30 30 30 30 29 28 26 25 24 23 21 20 19 18 17 15 14 12 10 10 10
351 350 350 351 350 350 349 348 347 347 347 347 348 349 350 352 353 354 354 355 355 353 350 350 350 352 353 354 354 355 355 355 355 356 356 357 356 355 354 354 354 354 357 5 17 24 29 32 33 33 33 32 31 30 28 26 24 22 20 19 18 17 17 16 15 14 13 12 12
351 350 349 349 349 348 348 347 347 346 347 347 349 350 351 353 355 356 356 356 356 355 353 352 352 352 354 355 355 355 355 355 355 355 356 357 357 356 355 354 353 353 354 3 17 25 29 33 34 34 34 33 32 30 28 26 24 23 21 18 16 15 15 15 15 15 15 15 15
351 349 348 348 348 348 347 347 346 346 346 347 349 350 351 352 355 356 357 357 357 356 355 354 354 354 354 355 354 354 355 355 355 355 355 355 356 356 356 354 353 351 352 359 17 26 29 32 34 33 33 32 31 29 27 24 22 21 20 18 16 14 14 13 14 14 15 17 17
350 349 348 349 349 348 348 347 347 346 347 347 348 349 350 351 354 356 357 358 357 357 356 355 355 354 354 354 354 354 354 355 356 355 355 354 354 355 356 355 353 351 350 354 14 27 29 32 33 33 32 31 30 28 25 22 20 18 17 15 14 13 12 11 11 12 13 14 16
350 349 349 350 351 350 349 349 348 348 347 348 348 349 349 350 352 355 357 357 358 357 357 356 355 355 355 354 354 354 355 355 356 356 355 354 353 355 356 355 353 351 349 348 6 28 29 31 32 33 32 31 30 28 26 23 21 17 15 13 11 10 9 8 9 9 10 10 12
350 350 351 351 352 352 352 351 351 350 349 348 348 348 349 349 350 353 355 356 357 358 358 357 356 355 355 354 354 354 355 355 355 355 354 354 354 354 354 353 352 351 349 346 2 31 32 31 32 32 32 31 30 28 26 24 22 19 15 12 9 7 5 4 5 6 7 7 8
350 351 352 352 353 354 354 353 353 352 351 349 348 348 348 348 349 351 353 355 356 357 358 358 357 356 354 353 353 354 354 355 354 354 353 353 353 354 353 351 351 351 350 348 2 28 36 35 32 32 32 32 30 28 26 25 22 20 17 14 10 7 4 2 2 2 4 4 5
350 351 352 352 353 354 355 355 354 353 351 350 348 348 348 348 348 349 350 352 354 356 357 357 357 354 353 352 352 353 353 354 354 354 353 352 352 352 352 350 350 350 350 349 356 18 35 38 35 32 31 31 30 28 26 24 22 20 18 15 12 9 6 3 1 360 0 1 2
350 350 351 352 353 354 355 355 355 354 352 351 349 348 348 348 347 347 348 350 352 354 355 356 355 353 351 351 352 352 352 353 353 353 352 352 351 351 350 349 349 350 350 348 350 3 26 35 36 33 31 31 30 28 26 24 22 20 18 15 12 10 8 5 2 359 358 358 359
349 350 350 352 353 354 355 355 355 354 353 352 350 349 348 347 347 346 346 347 349 352 354 354 353 352 351 351 351 351 351 352 352 352 351 350 350 349 349 348 349 350 350 347 348 354 8 27 35 35 32 30 30 28 26 24 21 19 17 14 12 10 8 6 4 0 358 356 357
349 349 350 351 353 354 355 355 355 355 354 352 350 349 348 347 347 346 345 345 348 352 353 352 351 351 352 352 351 350 351 352 353 352 351 349 348 348 348 347 348 349 349 347 345 348 355 15 31 34 32 30 30 28 26 24 21 19 17 14 12 10 8 6 5 2 358 356 355
349 350 350 351 353 354 354 355 355 355 354 353 351 350 348 348 347 346 345 346 348 350 351 350 350 351 352 352 351 350 351 352 353 352 351 349 347 346 345 345 345 347 348 346 343 345 350 3 21 28 28 29 30 28 25 22 21 19 17 14 12 11 9 6 5 3 -0 357 355
350 350 351 351 352 353 354 354 355 355 355 355 353 351 349 348 347 347 346 346 347 348 348 348 350 351 352 352 351 351 351 353 353 353 352 349 347 345 343 342 343 344 345 343 341 342 346 354 8 19 22 25 28 27 24 21 19 18 16 14 13 11 10 8 7 5 2 359 357
350 350 351 351 352 353 353 354 354 355 356 356 355 353 351 348 347 346 345 345 346 347 347 348 348 349 350 351 351 351 352 353 353 353 352 350 347 345 343 341 341 342 342 341 339 338 341 346 358 11 17 20 25 26 23 20 18 16 14 13 12 11 10 9 7 6 4 2 359
350 350 351 351 351 352 353 353 354 354 356 356 356 355 352 348 346 344 344 345 346 347 346 346 347 348 348 349 350 351 352 352 352 352 351 350 348 345 343 341 340 340 340 338 337 336 337 342 353 7 15 16 22 23 22 18 16 14 12 10 10 10 10 9 8 7 5 4 2
350 350 350 350 351 351 352 353 353 354 355 356 356 356 353 350 346 344 344 344 345 345 345 345 345 346 347 347 348 349 350 351 351 351 351 350 348 345 343 340 339 338 338 336 335 334 335 338 347 1 15 15 19 20 19 17 14 12 9 8 7 7 8 8 8 8 6 5 3
349 349 348 349 350 350 351 352 352 353 354 355 355 355 354 351 348 346 344 343 343 343 343 343 344 345 345 346 347 349 349 349 350 350 350 349 347 344 342 340 338 337 336 336 335 334 334 335 339 347 3 13 18 18 18 15 13 10 7 5 4 5 6 6 7 7 7 6 3
348 347 347 347 349 350 350 351 352 352 353 353 354 354 353 351 350 347 345 342 341 341 341 342 344 345 345 345 345 346 348 349 349 350 350 349 346 344 341 338 336 335 335 335 335 334 333 334 334 337 348 10 17 17 16 15 13 9 6 3 2 3 3 4 5 5 5 5 2
347 346 345 346 347 348 349 350 351 351 351 352 352 352 351 350 349 349 347 344 342 341 341 342 344 345 345 344 343 344 346 349 350 350 349 349 347 344 340 337 335 334 333 334 335 334 333 333 332 335 343 6 16 15 14 14 12 8 4 2 1 1 2 2 2 2 2 2 359
345 345 345 345 346 347 348 349 350 350 350 350 351 351 350 349 349 349 348 346 342 341 341 342 344 345 345 344 343 344 347 349 351 351 350 349 348 345 340 336 334 333 333 334 336 335 333 333 333 335 341 358 12 13 12 13 11 7 3 1 360 360 1 1 1 359 359 359 355
343 344 344 345 345 346 347 348 348 349 349 349 349 350 350 349 348 348 347 346 344 342 342 342 343 345 346 345 344 344 347 351 353 353 351 349 349 346 342 338 337 336 335 336 337 336 334 333 333 333 335 343 3 11 12 12 9 4 1 360 359 359 360 -0 359 357 356 356 354
341 342 343 344 345 345 346 346 347 347 347 347 348 349 348 348 347 346 346 345 345 344 343 343 343 345 346 346 344 344 346 350 353 353 352 350 350 348 346 345 344 342 341 340 339 337 334 332 332 332 333 337 1 14 13 11 7 2 359 360 1 0 359 359 358 357 354 353 351
337 339 341 342 343 344 345 345 345 345 345 346 347 347 347 346 345 345 345 345 345 345 344 343 343 345 346 345 344 343 344 346 349 351 351 350 350 350 350 350 349 348 347 345 342 337 333 332 332 333 335 344 10 18 13 8 4 1 359 1 2 2 360 358 357 356 354 352 349
Height
894 893 892 891 890 889 888 887 886 885 884 882 881 880 878 877 875 873 872 870 867 865 863 861 858 856 853 851 849 847 844 842 839 836 833 830 827 825 822 820 817 815 813 811 809 807 806 805 804 803 802 802 801 800 799 798 797 796 795 794 793 793 792 791 790 789 788 788 787
894 893 892 891 890 889 888 887 886 884 883 882 881 879 878 876 875 873 871 869 867 865 862 860 857 855 853 851 849 847 844 841 837 834 832 829 826 823 821 818 816 813 811 808 807 805 804 803 802 801 800 800 799 798 797 797 796 795 794 793 792 792 791 790 789 788 787 786 786
893 892 892 891 890 889 887 886 885 884 883 882 880 879 877 876 874 872 870 868 867 864 862 860 857 854 852 850 848 846 843 840 837 834 831 828 825 822 820 817 814 811 809 807 805 803 802 801 800 799 798 797 797 796 796 795 794 793 792 792 791 790 790 789 787 787 786 785 784
893 892 891 890 889 888 887 886 885 883 882 881 880 878 877 875 874 872 870 868 866 863 861 859 857 854 852 850 848 845 842 839 837 833 831 827 825 822 819 816 812 809 807 804 803 801 800 798 797 797 796 796 795 795 794 793 793 792 792 791 790 789 788 787 786 786 785 784 783
892 892 891 890 889 888 887 886 884 883 882 880 879 878 876 875 873 871 869 867 865 862 860 858 856 854 852 850 847 844 841 838 836 833 830 827 824 821 818 815 812 808 806 803 801 799 798 797 796 795 795 794 794 793 792 792 792 791 790 790 789 788 787 786 785 784 784 783 782
892 891 890 890 889 887 886 885 884 882 881 880 878 877 876 874 872 871 869 867 864 862 859 857 856 854 852 849 846 843 840 837 835 833 830 827 824 821 818 814 811 808 805 802 800 798 797 795 794 794 793 793 792 792 792 791 791 790 789 789 788 787 786 785 784 783 782 782 781
892 891 890 889 888 887 886 884 883 882 881 879 878 877 875 873 872 870 868 866 863 861 859 857 855 853 851 848 845 843 840 837 835 832 830 827 824 821 818 815 811 808 805 803 800 798 796 795 794 793 793 792 792 791 791 790 790 789 788 788 787 786 785 784 783 782 782 780 779
892 891 890 888 887 886 885 884 882 881 880 879 877 876 874 872 871 869 867 865 863 861 858 856 854 852 850 848 845 843 840 837 835 832 829 827 824 821 818 815 811 808 806 804 801 798 797 795 794 793 792 792 791 790 790 790 789 788 788 787 786 785 784 783 782 782 780 779 778
891 890 889 888 887 885 884 883 882 881 879 878 877 875 873 872 870 868 866 864 862 860 858 855 853 851 849 847 845 843 840 838 835 832 829 827 824 821 818 815 812 809 807 805 802 800 797 795 794 793 792 792 791 790 789 789 788 788 787 786 785 784 783 782 782 781 779 778 777
890 889 888 887 886 885 884 882 881 880 879 877 876 874 872 871 869 867 865 864 862 859 857 855 852 850 849 847 845 843 840 838 835 832 830 827 825 822 819 816 813 810 808 806 804 801 799 797 795 794 792 792 791 790 789 788 788 787 787 786 785 784 783 782 781 780 779 778 777
890 889 888 887 885 884 883 882 881 879 878 877 875 873 872 870 868 866 865 863 861 858 856 854 852 850 848 847 845 843 840 838 835 833 830 827 825 822 819 817 814 812 810 808 805 802 800 798 797 795 793 792 791 790 789 788 788 787 786 785 784 783 782 781 780 779 778 777 776
889 888 887 886 885 883 882 881 880 878 877 876 874 872 871 869 867 866 864 862 860 857 855 853 852 850 848 847 845 842 840 838 835 833 830 827 825 822 820 817 814 812 811 809 807 804 802 800 798 796 795 793 792 791 790 789 788 787 786 785 784 783 782 781 780 779 778 777 776
889 888 887 885 884 883 882 881 879 878 876 875 873 872 870 868 867 865 863 861 859 857 855 852 851 850 848 847 845 842 840 837 835 833 831 828 825 823 820 818 815 813 812 810 808 806 803 802 800 798 796 795 793 792 791 790 789 788 787 786 785 783 782 782 780 779 778 777 776
888 887 886 885 884 882 881 880 878 877 876 874 873 871 869 867 866 864 862 860 858 856 854 852 851 849 848 847 845 842 840 837 835 833 830 828 826 823 821 818 816 814 813 811 809 807 805 803 801 799 797 796 794 793 792 791 790 789 787 787 785 784 783 782 781 779 778 777 776
888 887 886 884 883 882 881 879 878 877 875 874 872 871 869 867 865 864 862 860 858 856 854 852 850 849 847 846 844 842 840 837 835 832 830 828 826 823 821 819 817 815 813 812 810 807 806 804 802 800 798 797 795 794 792 791 790 789 788 787 786 785 784 782 781 780 778 777 776
887 886 885 884 882 881 880 879 878 876 875 873 872 870 868 867 865 863 861 859 857 856 854 852 850 848 847 846 844 842 840 837 835 832 830 828 826 823 822 820 817 816 814 813 811 808 806 804 803 801 799 798 796 795 793 792 791 790 789 788 787 785 784 783 782 780 779 777 776
887 885 884 883 882 881 880 878 877 876 874 873 871 869 868 866 864 862 861 859 857 855 853 851 850 848 847 845 843 842 840 837 835 833 831 828 826 824 822 820 818 817 815 814 812 809 807 805 803 802 800 798 797 795 794 793 792 790 789 788 787 786 785 783 782 781 779 778 776
886 885 884 882 881 880 879 878 877 875 874 872 871 869 867 866 864 862 861 859 857 855 853 851 849 848 846 845 843 842 840 837 835 833 831 829 826 824 822 821 819 817 816 815 812 810 807 805 803 802 800 799 797 796 795 793 792 791 790 789 787 786 785 784 782 781 780 778 777
885 884 883 882 881 880 878 877 876 874 873 872 870 868 867 865 863 862 860 858 857 855 852 851 849 847 846 844 843 841 839 837 835 833 831 829 827 825 823 821 819 818 817 816 813 811 808 806 804 802 801 799 798 797 795 794 792 791 790 789 788 787 785 784 783 782 780 778 777
885 884 882 881 880 879 878 877 875 874 872 871 869 868 866 865 863 861 859 858 856 854 852 850 848 847 845 844 842 841 839 837 835 833 831 829 827 825 823 821 819 817 817 816 814 812 809 807 805 803 801 800 798 797 795 794 793 792 790 789 788 787 786 784 783 782 780 779 777
884 883 882 881 880 878 877 876 875 873 872 870 869 867 866 864 862 861 859 857 856 854 852 850 848 847 845 843 842 840 839 837 835 833 832 829 827 825 823 821 819 817 816 816 814 812 809 807 805 803 802 800 798 797 796 794 793 792 791 789 788 787 786 784 783 782 780 779 777
884 883 882 880 879 878 877 876 874 873 871 870 868 867 865 864 862 861 859 857 855 854 852 850 848 847 845 843 842 840 838 837 835 833 831 829 827 826 824 822 819 817 816 815 814 812 810 807 805 804 802 800 799 797 796 795 793 792 791 789 788 787 785 784 783 781 780 778 777
883 882 881 880 878 877 876 875 873 872 871 869 867 866 865 863 862 860 858 857 855 853 852 850 848 846 845 843 842 840 838 836 834 832 831 829 827 825 823 822 819 817 815 814 814 812 809 807 806 804 802 801 799 798 797 795 793 792 791 789 788 786 785 784 782 781 780 778 777
883 882 881 879 878 877 876 874 873 871 870 868 867 866 864 863 861 860 858 857 855 853 852 850 848 846 844 843 841 840 838 836 833 832 830 828 827 825 823 822 820 817 815 813 814 812 809 807 805 804 802 801 800 798 797 795 794 792 791 789 788 786 785 783 782 781 779 778 776
882 881 880 879 877 876 875 873 872 871 869 868 866 865 864 862 861 859 857 856 854 853 851 849 847 846 844 842 841 839 837 836 833 831 829 827 826 824 823 822 820 817 815 814 813 812 810 808 806 804 802 801 800 798 797 796 794 793 792 790 788 787 785 783 782 780 779 777 776
882 881 879 878 877 876 874 873 871 870 868 867 866 864 863 862 860 859 857 856 854 852 851 849 847 846 844 842 841 839 837 835 833 832 829 827 825 824 822 821 819 817 815 815 814 812 810 808 806 804 802 801 799 798 797 796 794 793 792 790 789 787 785 783 782 780 778 777 776
881 880 879 877 876 875 874 872 871 869 868 867 865 864 862 861 860 858 857 855 854 852 851 849 847 846 844 843 841 839 837 836 833 832 830 828 826 824 822 821 819 817 815 815 814 812 809 808 807 804 802 801 799 798 797 796 794 793 792 790 789 787 785 784 782 780 778 777 775
880 879 878 877 876 874 873 872 870 869 867 866 864 863 862 861 859 858 856 855 853 852 850 849 847 846 844 843 841 839 837 836 834 832 830 828 826 824 822 820 818 817 815 815 814 812 810 808 807 805 802 800 799 798 797 796 794 793 792 790 789 787 786 784 782 780 778 777 775
880 879 877 876 875 874 872 871 870 868 867 865 864 862 861 860 859 857 856 854 853 852 850 849 847 846 844 843 841 839 838 836 834 832 830 828 826 824 822 821 819 817 815 814 813 812 810 808 807 805 803 800 799 797 797 796 794 793 792 791 789 787 786 784 782 781 779 777 775
879 878 877 876 875 873 872 871 869 868 867 865 863 862 861 859 858 857 855 854 852 851 850 849 847 846 844 843 841 840 838 836 834 832 831 828 827 825 822 821 819 817 815 814 813 812 810 808 807 805 803 801 798 797 796 796 794 793 792 791 789 787 786 784 782 781 779 777 775
879 878 877 875 874 873 872 870 869 867 866 864 863 862 860 859 857 856 855 854 852 851 850 848 847 846 844 842 841 839 838 836 834 832 831 829 827 825 823 821 819 817 815 814 813 812 810 809 807 806 804 801 799 797 796 795 794 793 792 791 789 787 786 784 782 780 779 777 775
878 877 876 875 874 872 871 870 868 867 866 864 862 861 860 858 857 856 855 853 852 851 849 848 847 845 843 842 841 839 837 836 834 832 831 829 827 825 823 821 819 817 815 814 813 812 810 809 807 806 804 802 799 797 796 795 794 793 792 791 789 787 786 784 782 780 778 777 775
877 877 875 874 873 872 871 869 868 867 865 863 862 861 859 858 857 856 854 853 852 850 849 847 846 844 843 842 840 838 837 836 834 832 831 829 827 825 823 821 819 817 815 814 813 811 810 808 807 806 804 802 800 797 796 795 794 793 792 790 789 787 786 784 782 780 778 777 775
877 876 875 874 872 871 870 869 867 866 864 863 862 860 859 857 856 855 854 852 851 850 849 847 846 844 843 842 840 838 837 835 834 832 830 828 827 825 823 821 818 817 815 814 812 811 809 807 806 805 803 802 800 798 796 794 793 792 791 790 789 787 785 783 782 780 778 777 775
876 875 874 873 872 871 869 868 867 865 864 862 861 860 858 857 856 854 853 852 851 850 848 847 846 844 843 841 840 838 837 835 833 832 830 828 826 824 822 820 818 816 815 813 812 810 808 807 806 805 803 801 800 797 796 794 792 792 791 789 788 787 785 783 781 779 778 776 775
876 875 873 872 871 870 869 867 866 865 863 862 860 859 858 857 855 854 853 852 850 849 847 846 845 843 842 841 839 837 836 834 833 831 829 828 826 824 822 820 817 816 814 812 811 809 807 806 805 804 802 801 799 797 795 793 792 791 790 789 788 786 784 782 781 779 777 776 775
875 874 873 872 871 869 868 867 866 864 863 861 860 858 857 856 855 853 852 851 849 848 847 845 844 843 841 840 838 837 836 834 832 831 829 827 826 824 822 819 817 815 813 812 810 808 807 805 803 802 801 800 798 797 795 793 792 791 790 789 787 786 784 782 781 779 777 776 775
874 873 872 871 870 869 868 867 865 864 862 861 859 858 857 856 854 853 852 850 849 847 846 845 843 842 841 839 838 837 835 834 832 830 828 827 825 823 822 819 817 815 813 811 809 807 805 804 802 801 800 798 798 797 795 793 792 791 790 789 787 786 784 782 781 779 777 776 775
874 873 872 871 870 868 867 866 865 863 862 860 859 858 856 855 853 852 851 850 849 847 846 844 843 842 840 839 837 836 834 833 832 830 828 826 825 823 822 819 817 815 812 811 808 806 804 803 801 800 799 797 797 796 794 792 791 790 790 789 787 786 784 782 781 779 777 775 774
873 872 871 870 869 868 867 865 864 863 862 860 859 857 856 854 853 852 851 850 848 847 845 844 842 841 840 838 837 835 833 832 830 829 827 826 824 822 821 819 817 814 812 810 808 806 804 802 801 799 797 797 796 795 793 792 791 791 790 788 787 786 784 782 781 779 777 776 774
872 872 871 870 869 867 866 865 864 862 861 860 858 857 855 854 853 852 850 849 848 846 845 843 842 840 839 838 836 834 832 831 829 828 827 825 824 822 820 818 816 814 812 810 808 806 804 802 800 798 797 796 795 794 793 792 792 791 789 788 787 786 784 782 781 779 777 776 774